Yap International Airport
PTYA : now visible

Airfield :











YOU CAN JOIN US ON...

 
LOGIN :

Register | Disclaimer

   EN    FR    IT 

 









Legend :    VFR   Marginal VFR   IFR   Intensive IFR   Very Intensive IFR
Visi :
Ceiling :
>= 8 km
>= 3000ft
5 to 8 km
1000 to 3000 ft
1500m to 5 km
500 to 1000 ft
800 to 1500m
200 to 500 ft
< 800m
< 200 ft
Symbols :   Thunderstorms  Fog  Heavy snow  Heavy precipitations  Wind > 20 kt






- Airport Elevation : 91 ft
- IATA code : YAP


PTYA - Yap International

CURRENT METAR :
  • 180750Z VRB04KT 12SM FEW016 SCT300 30/26 A2976 RMK SLP079 T02960258

EXPIRED METARs :
  • 180650Z VRB06KT 12SM FEW140 SCT300 30/26 A2976 RMK SLP078 T02980259
  • 180550Z VRB06KT 12SM FEW130 SCT300 30/27 A2974 RMK SLP071 60000 8/032 T03030267 10307 20264 57027

TAF PTYA
Valid from the 18 at 06:00 until the 19 at 06:00 UTC


180538Z 1806/1906 VRB04KT P6SM VCSH FEW016 SCT130
KZOA FIR / Oceania



MET'MAP, your aeronautical weather chart ! - Copyright ORBIFLY December 2007 - Disclaimer

ORBIFLY MET'MAP TEAM :

Programming & Development : Alexandra Zaïnal
Concept & original design : Baudouin d'Aumeries
Assistance for programming : Marc-Olivier Méhu
Technical & hardware support : Manuel Goepfert

Contact : metmap@orbifly.com




SOURCES & CREDITS :

   NOAA       Earth
Advisory